TimeEST,TemperatureF,Dew PointF,Humidity,Sea Level PressureIn,VisibilityMPH,Wind Direction,Wind SpeedMPH,Gust SpeedMPH,PrecipitationIn,Events,Conditions,WindDirDegrees,DateUTC
12:48 AM,73.4,66.2,78,30.01,10.0,ENE,8.1,-,N/A,,Mostly Cloudy,70,2012-12-06 05:48:00
12:53 AM,73.9,66.0,76,30.01,10.0,ENE,10.4,-,N/A,,Mostly Cloudy,70,2012-12-06 05:53:00
1:53 AM,73.0,66.0,79,30.01,10.0,ENE,6.9,-,N/A,,Scattered Clouds,70,2012-12-06 06:53:00
2:53 AM,73.0,64.9,76,29.99,10.0,ENE,4.6,-,N/A,,Partly Cloudy,60,2012-12-06 07:53:00
3:53 AM,73.0,64.9,76,29.98,10.0,ENE,9.2,-,N/A,,Scattered Clouds,70,2012-12-06 08:53:00
4:29 AM,73.4,66.2,78,29.97,10.0,East,12.7,-,N/A,,Mostly Cloudy,90,2012-12-06 09:29:00
4:38 AM,73.4,66.2,78,29.97,8.0,East,13.8,20.7,0.00,Rain,Light Rain,80,2012-12-06 09:38:00
4:53 AM,73.0,68.0,84,29.97,10.0,ENE,9.2,-,0.01,,Mostly Cloudy,60,2012-12-06 09:53:00
5:53 AM,73.9,66.9,79,29.97,10.0,East,11.5,-,N/A,,Mostly Cloudy,100,2012-12-06 10:53:00
6:53 AM,73.9,68.0,82,29.99,10.0,East,8.1,-,N/A,,Partly Cloudy,100,2012-12-06 11:53:00
7:53 AM,73.9,66.9,79,30.00,10.0,ESE,6.9,-,N/A,,Mostly Cloudy,110,2012-12-06 12:53:00
8:53 AM,75.0,66.0,73,30.01,10.0,ESE,6.9,-,N/A,,Overcast,110,2012-12-06 13:53:00
9:53 AM,75.9,64.9,69,30.01,10.0,East,5.8,-,N/A,,Clear,90,2012-12-06 14:53:00
10:53 AM,75.9,64.9,69,30.00,10.0,East,8.1,-,N/A,,Clear,90,2012-12-06 15:53:00
11:53 AM,78.1,64.9,64,29.98,10.0,East,6.9,-,N/A,,Partly Cloudy,100,2012-12-06 16:53:00
12:53 PM,78.1,64.9,64,29.96,10.0,East,5.8,-,N/A,,Clear,100,2012-12-06 17:53:00
1:53 PM,77.0,64.9,66,29.93,10.0,East,5.8,-,N/A,,Scattered Clouds,100,2012-12-06 18:53:00
2:53 PM,75.9,64.0,67,29.92,10.0,SE,8.1,-,N/A,,Partly Cloudy,130,2012-12-06 19:53:00
3:53 PM,75.9,64.9,69,29.92,10.0,East,6.9,-,N/A,,Mostly Cloudy,100,2012-12-06 20:53:00
4:53 PM,75.9,64.0,67,29.93,10.0,ESE,6.9,-,N/A,,Mostly Cloudy,110,2012-12-06 21:53:00
5:53 PM,73.9,63.0,68,29.94,10.0,ESE,4.6,-,N/A,,Clear,120,2012-12-06 22:53:00
6:53 PM,73.9,64.0,71,29.95,10.0,ESE,4.6,-,N/A,,Clear,120,2012-12-06 23:53:00
8:53 PM,73.9,64.9,73,29.97,10.0,Calm,Calm,-,N/A,,Scattered Clouds,0,2012-12-07 01:53:00
9:53 PM,73.9,66.0,76,29.96,10.0,SSE,4.6,-,0.00,Rain,Light Rain,150,2012-12-07 02:53:00
10:16 PM,73.4,64.4,73,29.96,10.0,SSE,6.9,-,0.00,,Mostly Cloudy,150,2012-12-07 03:16:00
10:53 PM,73.9,64.9,73,29.96,10.0,SE,4.6,-,0.00,,Clear,140,2012-12-07 03:53:00
11:40 PM,75.2,66.2,73,29.95,10.0,ESE,15.0,-,N/A,,Overcast,120,2012-12-07 04:40:00
11:53 PM,73.9,66.0,76,29.96,10.0,SE,15.0,-,N/A,,Mostly Cloudy,130,2012-12-07 04:53:00